« Back
NWS Peachtree City, Ga » Text Product » GA Regional Weather Roundup


Printer-friendly Version
Current Version              Previous Versions:   1  2  3  4  5  6  7  8  9  

Regional Weather Roundup

068
ASUS42 KFFC 300303
RWRGA
WEATHER ROUNDUP FOR GEORGIA
NATIONAL WEATHER SERVICE PEACHTREE CITY GA
1000 PM EST THU JAN 29 2015

NOTE: "FAIR" INDICATES FEW OR NO CLOUDS BELOW 12,000 FEET WITH NO
SIGNIFICANT WEATHER AND/OR OBSTRUCTIONS TO VISIBILITY.

* = USE WITH CAUTION. THE STATIONS MARKED WITH AN ASTERISK MAY NOT
REPORT WEATHER SUCH AS PRECIPITATION, FOG, OR THUNDER AND ARE NOT
QUALITY CONTROLLED BY NWS.

THE REMARK "TC" DENOTES TEMPERATURE READING IN DEGREES CELSIUS.

GAZ001>058-300400-
NORTH GEORGIA

CITY           SKY/WX    TMP DP  RH WIND       PRES   REMARKS
ATLANTA        CLOUDY    54  33  45 SW5       30.11F
ATHENS         CLOUDY    51  31  46 SW6       30.10F
CHAMBLEE       CLOUDY    52  34  50 SW6       30.10F
PEACHTREE CITY CLOUDY    47  37  68 CALM      30.11F
ROME           MOCLDY    54  40  59 CALM      30.09F
WEST ATLANTA   CLOUDY    51  35  54 S6        30.11F
GAINESVILLE    CLOUDY    50  29  44 CALM      30.11F
CARTERSVILLE   CLOUDY    50  39  66 SE3       30.11F


CITY           SKY/WX    TMP DP  RH WIND       PRES   REMARKS
DALTON*        CLOUDY    50  36  57 CALM      30.10S
MARIETTA       CLOUDY    54  34  46 SW6       30.10F
KENNESAW*      MOCLDY    54  36  50 SW6       30.12F
$$

GAZ059>098-102>109-300400-
CENTRAL GEORGIA

CITY           SKY/WX    TMP DP  RH WIND       PRES   REMARKS
AUGUSTA-BUSH   CLOUDY    46  33  60 S6        30.15F
AUGUSTA-DANIEL CLOUDY    52  30  43 S6        30.14F
COLUMBUS       CLOUDY    55  43  63 SW6       30.14F
MACON          CLOUDY    52  34  50 SW5       30.15F
ROBINS AFB     CLOUDY    51  35  54 S5        30.15F


CITY           SKY/WX    TMP DP  RH WIND       PRES   REMARKS
LAGRANGE*      CLOUDY    59  44  57 S7        30.12S
SYLVANIA*      CLOUDY    48  42  77 CALM      30.18R
MILLEDGEVILLE* CLOUDY    45  37  76 CALM      30.13F
$$

GAZ099>101-110>166-300400-
SOUTH GEORGIA

CITY           SKY/WX    TMP DP  RH WIND       PRES   REMARKS
SAVANNAH       CLOUDY    50  43  77 S7        30.18F
VALDOSTA       PTCLDY    51  36  56 VRB5      30.20F
ALMA           MOCLDY    51  37  58 W3        30.19R
ST SIMONS      CLOUDY    55  49  80 S7        30.19F
FT STEWART     CLOUDY    51  45  79 S2        30.17S
ALBANY         MOCLDY    53  39  59 SW5       30.21R
HUNTER AFB     CLOUDY    51  46  83 S6        30.15F
MOODY AFB      PTCLDY    53  32  44 SW7       30.19F
BRUNSWICK      CLOUDY    55  48  76 S12       30.19S


CITY           SKY/WX    TMP DP  RH WIND       PRES   REMARKS
BAINBRIDGE*    MOCLDY    54  48  82 S3        30.21R
MOULTRIE*      MOCLDY    52  32  46 CALM      30.21S
VIDALIA*       CLOUDY    52  37  58 SW5       30.17S
WAYCROSS*      MOCLDY    55  43  63 SW7       30.19R
DOUGLAS*       MOCLDY    52  36  54 SW8       30.20R
$$



USA.gov is the U.S. government's official web portal to all federal, state and local government web resources and services.